Year,Month,Day,Hour,Minute,Value (Times are PST for insolation in W/m^2)
2015,12,03,00,00,0.00
2015,12,03,00,01,0.00
2015,12,03,00,02,0.00
2015,12,03,00,03,0.00
2015,12,03,00,04,0.00
2015,12,03,00,05,0.00
2015,12,03,00,06,0.00
2015,12,03,00,07,0.00
2015,12,03,00,08,0.00
2015,12,03,00,09,0.00
2015,12,03,00,10,0.00
2015,12,03,00,11,0.00
2015,12,03,00,12,0.00
2015,12,03,00,13,0.00
2015,12,03,00,14,0.00
2015,12,03,00,15,0.00
2015,12,03,00,16,0.00
2015,12,03,00,17,0.00
2015,12,03,00,18,0.00
2015,12,03,00,19,0.00
2015,12,03,00,20,0.00
2015,12,03,00,21,0.00
2015,12,03,00,22,0.00
2015,12,03,00,23,0.00
2015,12,03,00,24,0.00
2015,12,03,00,25,0.00
2015,12,03,00,26,0.00
2015,12,03,00,27,0.00
2015,12,03,00,28,0.00
2015,12,03,00,29,0.00
2015,12,03,00,30,0.00
2015,12,03,00,31,0.00
2015,12,03,00,32,0.00
2015,12,03,00,33,0.00
2015,12,03,00,34,0.00
2015,12,03,00,35,0.00
2015,12,03,00,36,0.00
2015,12,03,00,37,0.00
2015,12,03,00,38,0.00
2015,12,03,00,39,0.00
2015,12,03,00,40,0.00
2015,12,03,00,41,0.00
2015,12,03,00,42,0.00
2015,12,03,00,43,0.00
2015,12,03,00,44,0.00
2015,12,03,00,45,0.00
2015,12,03,00,46,0.00
2015,12,03,00,47,0.00
2015,12,03,00,48,0.00
2015,12,03,00,49,0.00
2015,12,03,00,50,0.00
2015,12,03,00,51,0.00
2015,12,03,00,52,0.00
2015,12,03,00,53,0.00
2015,12,03,00,54,0.00
2015,12,03,00,55,0.00
2015,12,03,00,56,0.00
2015,12,03,00,57,0.00
2015,12,03,00,58,0.00
2015,12,03,00,59,0.00
2015,12,03,01,00,0.00
2015,12,03,01,01,0.00
2015,12,03,01,02,0.00
2015,12,03,01,03,0.00
2015,12,03,01,04,0.00
2015,12,03,01,05,0.00
2015,12,03,01,06,0.00
2015,12,03,01,07,0.00
2015,12,03,01,08,0.00
2015,12,03,01,09,0.00
2015,12,03,01,10,0.00
2015,12,03,01,11,0.00
2015,12,03,01,12,0.00
2015,12,03,01,13,0.00
2015,12,03,01,14,0.00
2015,12,03,01,15,0.00
2015,12,03,01,16,0.00
2015,12,03,01,17,0.00
2015,12,03,01,18,0.00
2015,12,03,01,19,0.00
2015,12,03,01,20,0.00
2015,12,03,01,21,0.00
2015,12,03,01,22,0.00
2015,12,03,01,23,0.00
2015,12,03,01,24,0.00
2015,12,03,01,25,0.00
2015,12,03,01,26,0.00
2015,12,03,01,27,0.00
2015,12,03,01,28,0.00
2015,12,03,01,29,0.00
2015,12,03,01,30,0.00
2015,12,03,01,31,0.00
2015,12,03,01,32,0.00
2015,12,03,01,33,0.00
2015,12,03,01,34,0.00
2015,12,03,01,35,0.00
2015,12,03,01,36,0.00
2015,12,03,01,37,0.00
2015,12,03,01,38,0.00
2015,12,03,01,39,0.00
2015,12,03,01,40,0.00
2015,12,03,01,41,0.00
2015,12,03,01,42,0.00
2015,12,03,01,43,0.00
2015,12,03,01,44,0.00
2015,12,03,01,45,0.00
2015,12,03,01,46,0.00
2015,12,03,01,47,0.00
2015,12,03,01,48,0.00
2015,12,03,01,49,0.00
2015,12,03,01,50,0.00
2015,12,03,01,51,0.00
2015,12,03,01,52,0.00
2015,12,03,01,53,0.00
2015,12,03,01,54,0.00
2015,12,03,01,55,0.00
2015,12,03,01,56,0.00
2015,12,03,01,57,0.00
2015,12,03,01,58,0.00
2015,12,03,01,59,0.00
2015,12,03,02,00,0.00
2015,12,03,02,01,0.00
2015,12,03,02,02,0.00
2015,12,03,02,03,0.00
2015,12,03,02,04,0.00
2015,12,03,02,05,0.00
2015,12,03,02,06,0.00
2015,12,03,02,07,0.00
2015,12,03,02,08,0.00
2015,12,03,02,09,0.00
2015,12,03,02,10,0.00
2015,12,03,02,11,0.00
2015,12,03,02,12,0.00
2015,12,03,02,13,0.00
2015,12,03,02,14,0.00
2015,12,03,02,15,0.00
2015,12,03,02,16,0.00
2015,12,03,02,17,0.00
2015,12,03,02,18,0.00
2015,12,03,02,19,0.00
2015,12,03,02,20,0.00
2015,12,03,02,21,0.00
2015,12,03,02,22,0.00
2015,12,03,02,23,0.00
2015,12,03,02,24,0.00
2015,12,03,02,25,0.00
2015,12,03,02,26,0.00
2015,12,03,02,27,0.00
2015,12,03,02,28,0.00
2015,12,03,02,29,0.00
2015,12,03,02,30,0.00
2015,12,03,02,31,0.00
2015,12,03,02,32,0.00
2015,12,03,02,33,0.00
2015,12,03,02,34,0.00
2015,12,03,02,35,0.00
2015,12,03,02,36,0.00
2015,12,03,02,37,0.00
2015,12,03,02,38,0.00
2015,12,03,02,39,0.00
2015,12,03,02,40,0.00
2015,12,03,02,41,0.00
2015,12,03,02,42,0.00
2015,12,03,02,43,0.00
2015,12,03,02,44,0.00
2015,12,03,02,45,0.00
2015,12,03,02,46,0.00
2015,12,03,02,47,0.00
2015,12,03,02,48,0.00
2015,12,03,02,49,0.00
2015,12,03,02,50,0.00
2015,12,03,02,51,0.00
2015,12,03,02,52,0.00
2015,12,03,02,53,0.00
2015,12,03,02,54,0.00
2015,12,03,02,55,0.00
2015,12,03,02,56,0.00
2015,12,03,02,57,0.00
2015,12,03,02,58,0.00
2015,12,03,02,59,0.00
2015,12,03,03,00,0.00
2015,12,03,03,01,0.00
2015,12,03,03,02,0.00
2015,12,03,03,03,0.00
2015,12,03,03,04,0.00
2015,12,03,03,05,0.00
2015,12,03,03,06,0.00
2015,12,03,03,07,0.00
2015,12,03,03,08,0.00
2015,12,03,03,09,0.00
2015,12,03,03,10,0.00
2015,12,03,03,11,0.00
2015,12,03,03,12,0.00
2015,12,03,03,13,0.00
2015,12,03,03,14,0.00
2015,12,03,03,15,0.00
2015,12,03,03,16,0.00
2015,12,03,03,17,0.00
2015,12,03,03,18,0.00
2015,12,03,03,19,0.00
2015,12,03,03,20,0.00
2015,12,03,03,21,0.00
2015,12,03,03,22,0.00
2015,12,03,03,23,0.00
2015,12,03,03,24,0.00
2015,12,03,03,25,0.00
2015,12,03,03,26,0.00
2015,12,03,03,27,0.00
2015,12,03,03,28,0.00
2015,12,03,03,29,0.00
2015,12,03,03,30,0.00
2015,12,03,03,31,0.00
2015,12,03,03,32,0.00
2015,12,03,03,33,0.00
2015,12,03,03,34,0.00
2015,12,03,03,35,0.00
2015,12,03,03,36,0.00
2015,12,03,03,37,0.00
2015,12,03,03,38,0.00
2015,12,03,03,39,0.00
2015,12,03,03,40,0.00
2015,12,03,03,41,0.00
2015,12,03,03,42,0.00
2015,12,03,03,43,0.00
2015,12,03,03,44,0.00
2015,12,03,03,45,0.00
2015,12,03,03,46,0.00
2015,12,03,03,47,0.00
2015,12,03,03,48,0.00
2015,12,03,03,49,0.00
2015,12,03,03,50,0.00
2015,12,03,03,51,0.00
2015,12,03,03,52,0.00
2015,12,03,03,53,0.00
2015,12,03,03,54,0.00
2015,12,03,03,55,0.00
2015,12,03,03,56,0.00
2015,12,03,03,57,0.00
2015,12,03,03,58,0.00
2015,12,03,03,59,0.00
2015,12,03,04,00,0.00
2015,12,03,04,01,0.00
2015,12,03,04,02,0.00
2015,12,03,04,03,0.00
2015,12,03,04,04,0.00
2015,12,03,04,05,0.00
2015,12,03,04,06,0.00
2015,12,03,04,07,0.00
2015,12,03,04,08,0.00
2015,12,03,04,09,0.00
2015,12,03,04,10,0.00
2015,12,03,04,11,0.00
2015,12,03,04,12,0.00
2015,12,03,04,13,0.00
2015,12,03,04,14,0.00
2015,12,03,04,15,0.00
2015,12,03,04,16,0.00
2015,12,03,04,17,0.00
2015,12,03,04,18,0.00
2015,12,03,04,19,0.00
2015,12,03,04,20,0.00
2015,12,03,04,21,0.00
2015,12,03,04,22,0.00
2015,12,03,04,23,0.00
2015,12,03,04,24,0.00
2015,12,03,04,25,0.00
2015,12,03,04,26,0.00
2015,12,03,04,27,0.00
2015,12,03,04,28,0.00
2015,12,03,04,29,0.00
2015,12,03,04,30,0.00
2015,12,03,04,31,0.00
2015,12,03,04,32,0.00
2015,12,03,04,33,0.00
2015,12,03,04,34,0.00
2015,12,03,04,35,0.00
2015,12,03,04,36,0.00
2015,12,03,04,37,0.00
2015,12,03,04,38,0.00
2015,12,03,04,39,0.00
2015,12,03,04,40,0.00
2015,12,03,04,41,0.00
2015,12,03,04,42,0.00
2015,12,03,04,43,0.00
2015,12,03,04,44,0.00
2015,12,03,04,45,0.00
2015,12,03,04,46,0.00
2015,12,03,04,47,0.00
2015,12,03,04,48,0.00
2015,12,03,04,49,0.00
2015,12,03,04,50,0.00
2015,12,03,04,51,0.00
2015,12,03,04,52,0.00
2015,12,03,04,53,0.00
2015,12,03,04,54,0.00
2015,12,03,04,55,0.00
2015,12,03,04,56,0.00
2015,12,03,04,57,0.00
2015,12,03,04,58,0.00
2015,12,03,04,59,0.00
2015,12,03,05,00,0.00
2015,12,03,05,01,0.00
2015,12,03,05,02,0.00
2015,12,03,05,03,0.00
2015,12,03,05,04,0.00
2015,12,03,05,05,0.00
2015,12,03,05,06,0.00
2015,12,03,05,07,0.00
2015,12,03,05,08,0.00
2015,12,03,05,09,0.00
2015,12,03,05,10,0.00
2015,12,03,05,11,0.00
2015,12,03,05,12,0.00
2015,12,03,05,13,0.00
2015,12,03,05,14,0.00
2015,12,03,05,15,0.00
2015,12,03,05,16,0.00
2015,12,03,05,17,0.00
2015,12,03,05,18,0.00
2015,12,03,05,19,0.00
2015,12,03,05,20,0.00
2015,12,03,05,21,0.00
2015,12,03,05,22,0.00
2015,12,03,05,23,0.00
2015,12,03,05,24,0.00
2015,12,03,05,25,0.00
2015,12,03,05,26,0.00
2015,12,03,05,27,0.00
2015,12,03,05,28,0.00
2015,12,03,05,29,0.00
2015,12,03,05,30,0.00
2015,12,03,05,31,0.00
2015,12,03,05,32,0.00
2015,12,03,05,33,0.00
2015,12,03,05,34,0.00
2015,12,03,05,35,0.00
2015,12,03,05,36,0.00
2015,12,03,05,37,0.00
2015,12,03,05,38,0.00
2015,12,03,05,39,0.00
2015,12,03,05,40,0.00
2015,12,03,05,41,0.00
2015,12,03,05,42,0.00
2015,12,03,05,43,0.00
2015,12,03,05,44,0.00
2015,12,03,05,45,0.00
2015,12,03,05,46,0.00
2015,12,03,05,47,0.00
2015,12,03,05,48,0.00
2015,12,03,05,49,0.00
2015,12,03,05,50,0.00
2015,12,03,05,51,0.00
2015,12,03,05,52,0.00
2015,12,03,05,53,0.00
2015,12,03,05,54,0.00
2015,12,03,05,55,0.00
2015,12,03,05,56,0.00
2015,12,03,05,57,0.00
2015,12,03,05,58,0.00
2015,12,03,05,59,0.00
2015,12,03,06,00,0.00
2015,12,03,06,01,0.00
2015,12,03,06,02,0.00
2015,12,03,06,03,0.00
2015,12,03,06,04,0.00
2015,12,03,06,05,0.00
2015,12,03,06,06,0.00
2015,12,03,06,07,0.00
2015,12,03,06,08,0.00
2015,12,03,06,09,0.00
2015,12,03,06,10,0.00
2015,12,03,06,11,0.00
2015,12,03,06,12,0.00
2015,12,03,06,13,0.00
2015,12,03,06,14,0.00
2015,12,03,06,15,0.00
2015,12,03,06,16,0.00
2015,12,03,06,17,0.00
2015,12,03,06,18,0.00
2015,12,03,06,19,0.00
2015,12,03,06,20,0.00
2015,12,03,06,21,0.00
2015,12,03,06,22,0.00
2015,12,03,06,23,0.00
2015,12,03,06,24,0.00
2015,12,03,06,25,0.00
2015,12,03,06,26,0.00
2015,12,03,06,27,0.00
2015,12,03,06,28,0.00
2015,12,03,06,29,0.00
2015,12,03,06,30,0.00
2015,12,03,06,31,0.00
2015,12,03,06,32,0.00
2015,12,03,06,33,0.00
2015,12,03,06,34,0.00
2015,12,03,06,35,0.00
2015,12,03,06,36,0.00
2015,12,03,06,37,0.00
2015,12,03,06,38,0.00
2015,12,03,06,39,0.00
2015,12,03,06,40,0.00
2015,12,03,06,41,0.00
2015,12,03,06,42,0.00
2015,12,03,06,43,0.00
2015,12,03,06,44,0.00
2015,12,03,06,45,0.00
2015,12,03,06,46,0.00
2015,12,03,06,47,0.00
2015,12,03,06,48,0.00
2015,12,03,06,49,0.00
2015,12,03,06,50,0.00
2015,12,03,06,51,0.00
2015,12,03,06,52,0.00
2015,12,03,06,53,0.00
2015,12,03,06,54,0.00
2015,12,03,06,55,0.00
2015,12,03,06,56,0.00
2015,12,03,06,57,0.00
2015,12,03,06,58,0.00
2015,12,03,06,59,0.00
2015,12,03,07,00,0.00
2015,12,03,07,01,0.00
2015,12,03,07,02,0.00
2015,12,03,07,03,0.00
2015,12,03,07,04,0.00
2015,12,03,07,05,0.00
2015,12,03,07,06,0.00
2015,12,03,07,07,0.00
2015,12,03,07,08,0.00
2015,12,03,07,09,0.00
2015,12,03,07,10,0.00
2015,12,03,07,11,0.00
2015,12,03,07,12,0.00
2015,12,03,07,13,0.00
2015,12,03,07,14,0.00
2015,12,03,07,15,0.00
2015,12,03,07,16,0.00
2015,12,03,07,17,0.00
2015,12,03,07,18,0.00
2015,12,03,07,19,0.00
2015,12,03,07,20,0.00
2015,12,03,07,21,0.00
2015,12,03,07,22,0.00
2015,12,03,07,23,0.00
2015,12,03,07,24,0.00
2015,12,03,07,25,0.00
2015,12,03,07,26,0.00
2015,12,03,07,27,0.00
2015,12,03,07,28,0.00
2015,12,03,07,29,0.00
2015,12,03,07,30,0.00
2015,12,03,07,31,0.00
2015,12,03,07,32,0.00
2015,12,03,07,33,0.00
2015,12,03,07,34,0.00
2015,12,03,07,35,0.00
2015,12,03,07,36,0.00
2015,12,03,07,37,0.00
2015,12,03,07,38,0.00
2015,12,03,07,39,0.00
2015,12,03,07,40,0.00
2015,12,03,07,41,0.00
2015,12,03,07,42,0.00
2015,12,03,07,43,0.00
2015,12,03,07,44,0.00
2015,12,03,07,45,0.00
2015,12,03,07,46,0.00
2015,12,03,07,47,0.00
2015,12,03,07,48,0.00
2015,12,03,07,49,0.00
2015,12,03,07,50,0.00
2015,12,03,07,51,0.00
2015,12,03,07,52,0.00
2015,12,03,07,53,0.00
2015,12,03,07,54,0.00
2015,12,03,07,55,0.00
2015,12,03,07,56,0.00
2015,12,03,07,57,0.00
2015,12,03,07,58,0.00
2015,12,03,07,59,0.00
2015,12,03,08,00,0.00
2015,12,03,08,01,0.00
2015,12,03,08,02,0.00
2015,12,03,08,03,0.00
2015,12,03,08,04,0.00
2015,12,03,08,05,0.00
2015,12,03,08,06,0.00
2015,12,03,08,07,0.00
2015,12,03,08,08,3.20
2015,12,03,08,09,5.00
2015,12,03,08,10,5.00
2015,12,03,08,11,5.00
2015,12,03,08,12,5.00
2015,12,03,08,13,5.00
2015,12,03,08,14,5.00
2015,12,03,08,15,6.70
2015,12,03,08,16,7.00
2015,12,03,08,17,7.00
2015,12,03,08,18,7.00
2015,12,03,08,19,7.00
2015,12,03,08,20,8.50
2015,12,03,08,21,10.80
2015,12,03,08,22,11.10
2015,12,03,08,23,12.00
2015,12,03,08,24,12.90
2015,12,03,08,25,14.00
2015,12,03,08,26,14.00
2015,12,03,08,27,15.70
2015,12,03,08,28,15.60
2015,12,03,08,29,14.00
2015,12,03,08,30,14.00
2015,12,03,08,31,14.00
2015,12,03,08,32,12.40
2015,12,03,08,33,12.00
2015,12,03,08,34,12.00
2015,12,03,08,35,11.70
2015,12,03,08,36,11.00
2015,12,03,08,37,11.00
2015,12,03,08,38,9.40
2015,12,03,08,39,9.00
2015,12,03,08,40,9.40
2015,12,03,08,41,11.00
2015,12,03,08,42,11.00
2015,12,03,08,43,11.60
2015,12,03,08,44,12.00
2015,12,03,08,45,14.10
2015,12,03,08,46,16.40
2015,12,03,08,47,18.40
2015,12,03,08,48,20.10
2015,12,03,08,49,22.30
2015,12,03,08,50,25.50
2015,12,03,08,51,28.30
2015,12,03,08,52,32.20
2015,12,03,08,53,32.60
2015,12,03,08,54,32.60
2015,12,03,08,55,33.00
2015,12,03,08,56,34.70
2015,12,03,08,57,37.00
2015,12,03,08,58,36.40
2015,12,03,08,59,34.10
2015,12,03,09,00,32.40
2015,12,03,09,01,29.20
2015,12,03,09,02,28.00
2015,12,03,09,03,27.50
2015,12,03,09,04,25.00
2015,12,03,09,05,25.50
2015,12,03,09,06,27.20
2015,12,03,09,07,29.40
2015,12,03,09,08,30.10
2015,12,03,09,09,33.00
2015,12,03,09,10,33.00
2015,12,03,09,11,32.50
2015,12,03,09,12,32.00
2015,12,03,09,13,32.80
2015,12,03,09,14,33.10
2015,12,03,09,15,35.00
2015,12,03,09,16,35.70
2015,12,03,09,17,37.00
2015,12,03,09,18,38.20
2015,12,03,09,19,39.00
2015,12,03,09,20,40.10
2015,12,03,09,21,44.60
2015,12,03,09,22,47.00
2015,12,03,09,23,47.00
2015,12,03,09,24,46.30
2015,12,03,09,25,42.60
2015,12,03,09,26,37.00
2015,12,03,09,27,34.50
2015,12,03,09,28,33.00
2015,12,03,09,29,34.10
2015,12,03,09,30,37.60
2015,12,03,09,31,41.40
2015,12,03,09,32,46.20
2015,12,03,09,33,47.00
2015,12,03,09,34,47.00
2015,12,03,09,35,46.40
2015,12,03,09,36,46.00
2015,12,03,09,37,46.00
2015,12,03,09,38,44.00
2015,12,03,09,39,44.00
2015,12,03,09,40,44.00
2015,12,03,09,41,45.10
2015,12,03,09,42,49.50
2015,12,03,09,43,55.50
2015,12,03,09,44,62.80
2015,12,03,09,45,68.50
2015,12,03,09,46,72.90
2015,12,03,09,47,75.30
2015,12,03,09,48,76.80
2015,12,03,09,49,78.90
2015,12,03,09,50,81.00
2015,12,03,09,51,81.60
2015,12,03,09,52,83.40
2015,12,03,09,53,84.00
2015,12,03,09,54,84.00
2015,12,03,09,55,83.90
2015,12,03,09,56,82.20
2015,12,03,09,57,77.20
2015,12,03,09,58,72.20
2015,12,03,09,59,71.20
2015,12,03,10,00,77.50
2015,12,03,10,01,91.10
2015,12,03,10,02,106.10
2015,12,03,10,03,116.40
2015,12,03,10,04,123.00
2015,12,03,10,05,126.30
2015,12,03,10,06,125.40
2015,12,03,10,07,124.80
2015,12,03,10,08,123.00
2015,12,03,10,09,123.00
2015,12,03,10,10,124.00
2015,12,03,10,11,123.70
2015,12,03,10,12,123.00
2015,12,03,10,13,120.20
2015,12,03,10,14,117.20
2015,12,03,10,15,106.20
2015,12,03,10,16,99.10
2015,12,03,10,17,92.80
2015,12,03,10,18,86.80
2015,12,03,10,19,84.10
2015,12,03,10,20,84.60
2015,12,03,10,21,89.20
2015,12,03,10,22,95.30
2015,12,03,10,23,97.70
2015,12,03,10,24,97.20
2015,12,03,10,25,92.50
2015,12,03,10,26,88.80
2015,12,03,10,27,83.80
2015,12,03,10,28,75.80
2015,12,03,10,29,72.00
2015,12,03,10,30,71.10
2015,12,03,10,31,53.00
2015,12,03,10,32,53.30
2015,12,03,10,33,54.00
2015,12,03,10,34,55.30
2015,12,03,10,35,59.00
2015,12,03,10,36,64.80
2015,12,03,10,37,70.80
2015,12,03,10,38,74.70
2015,12,03,10,39,75.00
2015,12,03,10,40,74.00
2015,12,03,10,41,74.00
2015,12,03,10,42,81.20
2015,12,03,10,43,93.20
2015,12,03,10,44,106.90
2015,12,03,10,45,124.00
2015,12,03,10,46,140.20
2015,12,03,10,47,165.60
2015,12,03,10,48,174.10
2015,12,03,10,49,198.60
2015,12,03,10,50,204.40
2015,12,03,10,51,225.00
2015,12,03,10,52,203.10
2015,12,03,10,53,185.40
2015,12,03,10,54,168.40
2015,12,03,10,55,141.50
2015,12,03,10,56,124.00
2015,12,03,10,57,114.20
2015,12,03,10,58,108.20
2015,12,03,10,59,104.30
2015,12,03,11,00,101.30
2015,12,03,11,01,96.40
2015,12,03,11,02,95.00
2015,12,03,11,03,95.00
2015,12,03,11,04,95.00
2015,12,03,11,05,89.10
2015,12,03,11,06,83.80
2015,12,03,11,07,82.40
2015,12,03,11,08,80.10
2015,12,03,11,09,77.80
2015,12,03,11,10,79.80
2015,12,03,11,11,83.60
2015,12,03,11,12,84.00
2015,12,03,11,13,85.30
2015,12,03,11,14,90.20
2015,12,03,11,15,96.00
2015,12,03,11,16,99.50
2015,12,03,11,17,101.90
2015,12,03,11,18,105.80
2015,12,03,11,19,109.60
2015,12,03,11,20,112.50
2015,12,03,11,21,117.90
2015,12,03,11,22,125.50
2015,12,03,11,23,128.10
2015,12,03,11,24,130.40
2015,12,03,11,25,133.10
2015,12,03,11,26,140.50
2015,12,03,11,27,151.90
2015,12,03,11,28,155.80
2015,12,03,11,29,154.90
2015,12,03,11,30,153.00
2015,12,03,11,31,151.20
2015,12,03,11,32,144.50
2015,12,03,11,33,137.10
2015,12,03,11,34,127.00
2015,12,03,11,35,113.50
2015,12,03,11,36,109.00
2015,12,03,11,37,107.40
2015,12,03,11,38,104.40
2015,12,03,11,39,104.00
2015,12,03,11,40,104.80
2015,12,03,11,41,111.20
2015,12,03,11,42,114.00
2015,12,03,11,43,112.70
2015,12,03,11,44,106.90
2015,12,03,11,45,101.20
2015,12,03,11,46,101.70
2015,12,03,11,47,108.10
2015,12,03,11,48,114.00
2015,12,03,11,49,106.80
2015,12,03,11,50,89.60
2015,12,03,11,51,84.00
2015,12,03,11,52,87.20
2015,12,03,11,53,81.90
2015,12,03,11,54,73.90
2015,12,03,11,55,67.20
2015,12,03,11,56,65.00
2015,12,03,11,57,66.50
2015,12,03,11,58,68.90
2015,12,03,11,59,72.80
2015,12,03,12,00,76.30
2015,12,03,12,01,77.00
2015,12,03,12,02,76.40
2015,12,03,12,03,73.00
2015,12,03,12,04,72.40
2015,12,03,12,05,76.20
2015,12,03,12,06,76.60
2015,12,03,12,07,75.00
2015,12,03,12,08,74.00
2015,12,03,12,09,75.60
2015,12,03,12,10,79.30
2015,12,03,12,11,84.40
2015,12,03,12,12,85.20
2015,12,03,12,13,83.40
2015,12,03,12,14,81.60
2015,12,03,12,15,81.00
2015,12,03,12,16,79.10
2015,12,03,12,17,79.00
2015,12,03,12,18,78.20
2015,12,03,12,19,76.40
2015,12,03,12,20,76.70
2015,12,03,12,21,78.60
2015,12,03,12,22,91.90
2015,12,03,12,23,106.20
2015,12,03,12,24,118.20
2015,12,03,12,25,122.20
2015,12,03,12,26,120.90
2015,12,03,12,27,116.60
2015,12,03,12,28,113.20
2015,12,03,12,29,109.60
2015,12,03,12,30,112.30
2015,12,03,12,31,114.00
2015,12,03,12,32,111.90
2015,12,03,12,33,107.60
2015,12,03,12,34,107.80
2015,12,03,12,35,111.60
2015,12,03,12,36,113.00
2015,12,03,12,37,113.00
2015,12,03,12,38,111.50
2015,12,03,12,39,109.20
2015,12,03,12,40,109.40
2015,12,03,12,41,109.70
2015,12,03,12,42,104.50
2015,12,03,12,43,99.60
2015,12,03,12,44,95.80
2015,12,03,12,45,98.20
2015,12,03,12,46,106.80
2015,12,03,12,47,114.00
2015,12,03,12,48,123.00
2015,12,03,12,49,136.60
2015,12,03,12,50,143.00
2015,12,03,12,51,149.10
2015,12,03,12,52,156.50
2015,12,03,12,53,158.00
2015,12,03,12,54,158.00
2015,12,03,12,55,161.20
2015,12,03,12,56,155.00
2015,12,03,12,57,155.40
2015,12,03,12,58,160.40
2015,12,03,12,59,171.40
2015,12,03,13,00,178.60
2015,12,03,13,01,181.70
2015,12,03,13,02,194.90
2015,12,03,13,03,219.40
2015,12,03,13,04,228.30
2015,12,03,13,05,231.20
2015,12,03,13,06,230.00
2015,12,03,13,07,246.90
2015,12,03,13,08,235.10
2015,12,03,13,09,195.60
2015,12,03,13,10,165.30
2015,12,03,13,11,148.10
2015,12,03,13,12,136.00
2015,12,03,13,13,128.30
2015,12,03,13,14,121.90
2015,12,03,13,15,121.00
2015,12,03,13,16,161.60
2015,12,03,13,17,211.40
2015,12,03,13,18,158.40
2015,12,03,13,19,138.20
2015,12,03,13,20,152.30
2015,12,03,13,21,156.00
2015,12,03,13,22,165.60
2015,12,03,13,23,194.00
2015,12,03,13,24,214.00
2015,12,03,13,25,248.70
2015,12,03,13,26,170.80
2015,12,03,13,27,141.20
2015,12,03,13,28,124.40
2015,12,03,13,29,117.00
2015,12,03,13,30,108.20
2015,12,03,13,31,99.50
2015,12,03,13,32,95.30
2015,12,03,13,33,100.80
2015,12,03,13,34,109.80
2015,12,03,13,35,104.90
2015,12,03,13,36,96.60
2015,12,03,13,37,93.40
2015,12,03,13,38,98.40
2015,12,03,13,39,113.00
2015,12,03,13,40,114.20
2015,12,03,13,41,116.00
2015,12,03,13,42,116.00
2015,12,03,13,43,116.00
2015,12,03,13,44,116.00
2015,12,03,13,45,143.00
2015,12,03,13,46,180.70
2015,12,03,13,47,181.80
2015,12,03,13,48,211.00
2015,12,03,13,49,303.60
2015,12,03,13,50,296.30
2015,12,03,13,51,152.50
2015,12,03,13,52,125.70
2015,12,03,13,53,110.60
2015,12,03,13,54,92.50
2015,12,03,13,55,78.30
2015,12,03,13,56,69.00
2015,12,03,13,57,65.00
2015,12,03,13,58,65.90
2015,12,03,13,59,70.00
2015,12,03,14,00,70.40
2015,12,03,14,01,67.20
2015,12,03,14,02,62.80
2015,12,03,14,03,59.90
2015,12,03,14,04,54.50
2015,12,03,14,05,51.70
2015,12,03,14,06,48.00
2015,12,03,14,07,47.00
2015,12,03,14,08,49.60
2015,12,03,14,09,61.00
2015,12,03,14,10,65.10
2015,12,03,14,11,65.70
2015,12,03,14,12,59.40
2015,12,03,14,13,53.20
2015,12,03,14,14,52.00
2015,12,03,14,15,48.20
2015,12,03,14,16,44.40
2015,12,03,14,17,42.00
2015,12,03,14,18,33.60
2015,12,03,14,19,31.80
2015,12,03,14,20,30.00
2015,12,03,14,21,29.20
2015,12,03,14,22,26.90
2015,12,03,14,23,25.30
2015,12,03,14,24,25.00
2015,12,03,14,25,22.80
2015,12,03,14,26,21.00
2015,12,03,14,27,20.10
2015,12,03,14,28,19.00
2015,12,03,14,29,20.40
2015,12,03,14,30,21.00
2015,12,03,14,31,23.00
2015,12,03,14,32,23.90
2015,12,03,14,33,26.80
2015,12,03,14,34,29.20
2015,12,03,14,35,32.20
2015,12,03,14,36,34.80
2015,12,03,14,37,35.30
2015,12,03,14,38,37.90
2015,12,03,14,39,40.90
2015,12,03,14,40,42.00
2015,12,03,14,41,39.80
2015,12,03,14,42,33.40
2015,12,03,14,43,27.40
2015,12,03,14,44,23.60
2015,12,03,14,45,21.00
2015,12,03,14,46,18.00
2015,12,03,14,47,14.50
2015,12,03,14,48,12.10
2015,12,03,14,49,11.00
2015,12,03,14,50,11.00
2015,12,03,14,51,11.00
2015,12,03,14,52,11.60
2015,12,03,14,53,13.60
2015,12,03,14,54,16.10
2015,12,03,14,55,18.20
2015,12,03,14,56,20.50
2015,12,03,14,57,24.60
2015,12,03,14,58,27.40
2015,12,03,14,59,31.20
2015,12,03,15,00,32.10
2015,12,03,15,01,33.00
2015,12,03,15,02,33.00
2015,12,03,15,03,33.00
2015,12,03,15,04,32.30
2015,12,03,15,05,30.30
2015,12,03,15,06,30.00
2015,12,03,15,07,30.60
2015,12,03,15,08,32.40
2015,12,03,15,09,33.00
2015,12,03,15,10,32.30
2015,12,03,15,11,26.60
2015,12,03,15,12,24.20
2015,12,03,15,13,12.50
2015,12,03,15,14,9.00
2015,12,03,15,15,9.00
2015,12,03,15,16,10.50
2015,12,03,15,17,11.00
2015,12,03,15,18,9.00
2015,12,03,15,19,9.00
2015,12,03,15,20,8.10
2015,12,03,15,21,7.00
2015,12,03,15,22,8.60
2015,12,03,15,23,9.00
2015,12,03,15,24,8.60
2015,12,03,15,25,7.00
2015,12,03,15,26,6.00
2015,12,03,15,27,5.00
2015,12,03,15,28,5.00
2015,12,03,15,29,5.00
2015,12,03,15,30,5.00
2015,12,03,15,31,5.00
2015,12,03,15,32,5.00
2015,12,03,15,33,5.00
2015,12,03,15,34,5.00
2015,12,03,15,35,5.20
2015,12,03,15,36,8.00
2015,12,03,15,37,11.40
2015,12,03,15,38,13.10
2015,12,03,15,39,14.00
2015,12,03,15,40,12.40
2015,12,03,15,41,11.90
2015,12,03,15,42,11.00
2015,12,03,15,43,11.00
2015,12,03,15,44,9.90
2015,12,03,15,45,9.00
2015,12,03,15,46,9.00
2015,12,03,15,47,7.00
2015,12,03,15,48,7.00
2015,12,03,15,49,7.00
2015,12,03,15,50,7.00
2015,12,03,15,51,7.00
2015,12,03,15,52,6.90
2015,12,03,15,53,5.00
2015,12,03,15,54,5.00
2015,12,03,15,55,5.00
2015,12,03,15,56,5.00
2015,12,03,15,57,1.50
2015,12,03,15,58,4.20
2015,12,03,15,59,5.00
2015,12,03,16,00,5.00
2015,12,03,16,01,5.00
2015,12,03,16,02,5.00
2015,12,03,16,03,1.20
2015,12,03,16,04,0.00
2015,12,03,16,05,0.00
2015,12,03,16,06,0.00
2015,12,03,16,07,0.00
2015,12,03,16,08,0.00
2015,12,03,16,09,0.00
2015,12,03,16,10,0.00
2015,12,03,16,11,0.00
2015,12,03,16,12,0.00
2015,12,03,16,13,0.00
2015,12,03,16,14,0.00
2015,12,03,16,15,0.00
2015,12,03,16,16,0.00
2015,12,03,16,17,0.00
2015,12,03,16,18,0.00
2015,12,03,16,19,0.00
2015,12,03,16,20,0.00
2015,12,03,16,21,0.00
2015,12,03,16,22,0.00
2015,12,03,16,23,0.00
2015,12,03,16,24,0.00
2015,12,03,16,25,0.00
2015,12,03,16,26,0.00
2015,12,03,16,27,0.00
2015,12,03,16,28,0.00
2015,12,03,16,29,0.00
2015,12,03,16,30,0.00
2015,12,03,16,31,0.00
2015,12,03,16,32,0.00
2015,12,03,16,33,0.00
2015,12,03,16,34,0.00
2015,12,03,16,35,0.00
2015,12,03,16,36,0.00
2015,12,03,16,37,0.00
2015,12,03,16,38,0.00
2015,12,03,16,39,0.00
2015,12,03,16,40,0.00
2015,12,03,16,41,0.00
2015,12,03,16,42,0.00
2015,12,03,16,43,0.00
2015,12,03,16,44,0.00
2015,12,03,16,45,0.00
2015,12,03,16,46,0.00
2015,12,03,16,47,0.00
2015,12,03,16,48,0.00
2015,12,03,16,49,0.00
2015,12,03,16,50,0.00
2015,12,03,16,51,0.00
2015,12,03,16,52,0.00
2015,12,03,16,53,0.00
2015,12,03,16,54,0.00
2015,12,03,16,55,0.00
2015,12,03,16,56,0.00
2015,12,03,16,57,0.00
2015,12,03,16,58,0.00
2015,12,03,16,59,0.00
2015,12,03,17,00,0.00
2015,12,03,17,01,0.00
2015,12,03,17,02,0.00
2015,12,03,17,03,0.00
2015,12,03,17,04,0.00
2015,12,03,17,05,0.00
2015,12,03,17,06,0.00
2015,12,03,17,07,0.00
2015,12,03,17,08,0.00
2015,12,03,17,09,0.00
2015,12,03,17,10,0.00
2015,12,03,17,11,0.00
2015,12,03,17,12,0.00
2015,12,03,17,13,0.00
2015,12,03,17,14,0.00
2015,12,03,17,15,0.00
2015,12,03,17,16,0.00
2015,12,03,17,17,0.00
2015,12,03,17,18,0.00
2015,12,03,17,19,0.00
2015,12,03,17,20,0.00
2015,12,03,17,21,0.00
2015,12,03,17,22,0.00
2015,12,03,17,23,0.00
2015,12,03,17,24,0.00
2015,12,03,17,25,0.00
2015,12,03,17,26,0.00
2015,12,03,17,27,0.00
2015,12,03,17,28,0.00
2015,12,03,17,29,0.00
2015,12,03,17,30,0.00
2015,12,03,17,31,0.00
2015,12,03,17,32,0.00
2015,12,03,17,33,0.00
2015,12,03,17,34,0.00
2015,12,03,17,35,0.00
2015,12,03,17,36,0.00
2015,12,03,17,37,0.00
2015,12,03,17,38,0.00
2015,12,03,17,39,0.00
2015,12,03,17,40,0.00